Overview Statistics Trail Chart Weather Telemetry Raw packets
 

This is the latest recevied weather packets stored in our database for station/object N5CSU. If no packets are shown the sender has not sent any weather packets the latest 10 day(s).

<< 34 35 36 37 38 39 40 >>
Time Temp. Humidity Pressure Rain* Wind** Luminosity Snow
1788384514 37.22° C 41% 1011.6 hPa 0 mm - 13 W/m² -
1788384211 37.22° C 42% 1011.9 hPa 0 mm - 13 W/m² -
1788383907 37.22° C 42% 1012 hPa 0 mm - 12 W/m² -
1788383602 37.22° C 42% 1011.9 hPa 0 mm - 11 W/m² -
1788383297 36.67° C 42% 1011.8 hPa 0 mm - 12 W/m² -
1788382992 37.22° C 42% 1011.8 hPa 0 mm - 12 W/m² -
1788382690 36.67° C 43% 1012 hPa 0 mm - 12 W/m² -
1788382385 36.67° C 43% 1012 hPa 0 mm - 24 W/m² -
1788382080 36.67° C 42% 1012.1 hPa 0 mm - 12 W/m² -
1788381775 36.67° C 43% 1012.1 hPa 0 mm - 32 W/m² -
1788381471 36.67° C 43% 1012.2 hPa 0 mm - 12 W/m² -
1788381171 37.22° C 42% 1012.5 hPa 0 mm - 12 W/m² -
1788380866 37.22° C 43% 1012.5 hPa 0 mm - 42 W/m² -
1788380562 37.22° C 43% 1012.5 hPa 0 mm - 15 W/m² -
1788380258 36.67° C 43% 1012.5 hPa 0 mm - 13 W/m² -
1788379957 36.67° C 44% 1012.7 hPa 0 mm - 13 W/m² -
1788379652 36.67° C 44% 1012.7 hPa 0 mm - 12 W/m² -
1788379343 36.11° C 44% 1012.8 hPa 0 mm - 82 W/m² -
1788379039 36.67° C 42% 1012.9 hPa 0 mm - 35 W/m² -
1788378737 36.11° C 43% 1013.1 hPa 0 mm - 18 W/m² -
1788378437 36.11° C 43% 1013.1 hPa 0 mm - 13 W/m² -
1788378132 36.67° C 43% 1013.3 hPa 0 mm - 15 W/m² -
1788377828 36.11° C 44% 1013.2 hPa 0 mm - 14 W/m² -
1788377523 36.67° C 42% 1013.3 hPa 0 mm - 19 W/m² -
1788377221 36.11° C 43% 1013.4 hPa 0 mm - 28 W/m² -

* Rain latest hour (hover to see other rain measurements)
** Current wind speed in m/s (hover to see current wind gust speed)